ISS (ZARYA) 1 25544U 98067A 26195.15353936 .00004039 00000+0 81426-4 0 9998 2 25544 51.6308 166.6375 0006704 293.6864 66.3421 15.49005057575931 POISK 1 36086U 09060A 26195.15353936 .00004039 00000+0 81426-4 0 9996 2 36086 51.6308 166.6375 0006704 293.6864 66.3421 15.49005057575697 CSS (TIANHE) 1 48274U 21035A 26195.18938242 .00000775 00000+0 14292-4 0 9996 2 48274 41.4690 157.9320 0002447 303.4143 56.6460 15.58062507297388 ISS (NAUKA) 1 49044U 21066A 26195.15353936 .00004039 00000+0 81426-4 0 9994 2 49044 51.6308 166.6375 0006704 293.6864 66.3421 15.49005057575730 FREGAT DEB 1 49271U 11037PF 26194.51910088 .00013795 00000+0 23384-1 0 9994 2 49271 51.6177 282.7388 0899815 339.7873 16.9385 12.42712902228329 CSS (WENTIAN) 1 53239U 22085A 26194.54839549 .00000774 00000+0 14285-4 0 9999 2 53239 41.4687 161.8154 0002308 295.5855 64.4744 15.58055023288238 CSS (MENGTIAN) 1 54216U 22143A 26195.18938242 .00000775 00000+0 14292-4 0 9990 2 54216 41.4690 157.9320 0002447 303.4143 56.6460 15.58062507296920 HRC MONOBLOCK CAMERA 1 66052U 98067XR 26195.08599015 .00069262 00000+0 39646-3 0 9994 2 66052 51.6198 140.5760 0001423 65.2340 294.8809 15.78187200 42245 SZ-21 MODULE 1 66515U 25246C 26194.93053896 .00034507 00000+0 19171-3 0 9997 2 66515 41.4711 140.4717 0008041 212.4779 147.5572 15.78722659 37960 SOYUZ-MS 28 1 66664U 25275A 26195.15353936 .00004039 00000+0 81426-4 0 9997 2 66664 51.6308 166.6375 0006704 293.6864 66.3421 15.49005057575816 DUPLEX 1 66906U 98067XS 26195.15177941 .00028072 00000+0 29030-3 0 9990 2 66906 51.6250 153.1027 0002537 332.8598 27.2264 15.64507761 34879 KNACKSAT-2 1 67683U 98067XZ 26195.17133874 .00035210 00000+0 39407-3 0 9993 2 67683 51.6265 158.5001 0008030 324.3037 35.7419 15.62331997 24494 CORAL 1 67684U 98067YA 26195.09237297 .00324608 50283-4 10283-2 0 9994 2 67684 51.6156 148.0979 0003517 8.3842 351.7222 15.90721043 24624 GXIBA-1 1 67685U 98067YB 26195.14154541 .00044637 00000+0 45777-3 0 9996 2 67685 51.6262 157.5423 0008709 321.7789 38.2588 15.64445593 24505 UITMSAT-2 1 67686U 98067YC 26195.15054981 .00065063 00000+0 55343-3 0 9991 2 67686 51.6256 155.3428 0004153 319.9171 40.1519 15.68963661 24537 LEOPARD 1 67687U 98067YD 26195.11577522 .00046098 00000+0 48854-3 0 9995 2 67687 51.6267 158.1396 0004744 306.1149 53.9406 15.63628433 24418 HMU-SAT2 1 67688U 98067YE 26195.17208544 .00054613 00000+0 50942-3 0 9990 2 67688 51.6256 156.2533 0004251 314.5721 45.4927 15.66769184 24440 CREW DRAGON 12 1 67796U 26031A 26195.15353936 .00004039 00000+0 81426-4 0 9995 2 67796 51.6308 166.6375 0006704 293.6864 66.3421 15.49005057575778 PROGRESS-MS 33 1 68319U 26058A 26195.15353936 .00004039 00000+0 81426-4 0 9996 2 68319 51.6308 166.6375 0006704 293.6864 66.3421 15.49005057575859 CYGNUS NG-24 1 68689U 26079A 26194.31484285 .00004029 00000+0 81266-4 0 9999 2 68689 51.6305 170.7871 0006687 290.3592 69.6678 15.48997295681856 PROGRESS-MS 34 1 68837U 26093A 26194.31484285 .00004029 00000+0 81266-4 0 9990 2 68837 51.6305 170.7871 0006687 290.3592 69.6678 15.48997295699580 TIANZHOU-10 1 69049U 26102A 26194.54839549 .00000774 00000+0 14285-4 0 9999 2 69049 41.4687 161.8154 0002308 295.5855 64.4744 15.58055023296615 SHENZHOU-23 (SZ-23) 1 69180U 26113A 26194.54839549 .00000774 00000+0 14285-4 0 9997 2 69180 41.4687 161.8154 0002308 295.5855 64.4744 15.58055023296059